PBO Station Position Time Series. Reference Frame : NAM14
Format Version,1.1.0
4-character ID,MNMC
Station name,MNMC_SCGN_CN2001
Begin Date, 2001-08-04
End Date, 2021-06-29
Release Date, 2021-12-30
Reference position, 35.9694714464 North Latitude, -120.4340525208 East Longitude, 1061.91865 meters elevation,
Date, North (mm), East (mm), Vertical (mm), North Std. Deviation (mm), East Std. Deviation (mm),              Vertical Std. Deviation (mm), Quality,
2001-08-04,0.00, 0.00, 0.00, 2.14, 1.83, 7.98, repro,
2001-08-05,4.22, -1.05, -2.85, 2.15, 1.84, 8.01, repro,
2001-08-06,-0.30, -2.32, -2.17, 2.08, 1.79, 7.78, repro,
2001-08-07,0.49, -0.92, -5.54, 2.17, 1.83, 8.07, repro,
2001-08-08,0.97, -2.64, -8.25, 2.14, 1.87, 8.08, repro,
2001-08-09,2.90, -5.02, -1.56, 3.18, 2.88, 12.92, repro,
2001-08-10,2.20, 0.34, -2.23, 2.27, 1.94, 8.46, repro,
2001-08-11,1.66, -0.78, 0.07, 2.14, 1.76, 7.88, repro,
2001-08-12,2.05, -1.01, -5.29, 2.07, 1.69, 7.68, repro,
2001-08-13,-0.43, 0.11, -13.28, 2.10, 1.76, 7.90, repro,
2001-08-14,-0.94, 0.04, -0.53, 2.08, 1.78, 7.66, repro,
2001-08-15,-0.31, 1.59, -3.03, 2.15, 1.81, 7.84, repro,
2001-08-16,0.58, -1.40, 3.23, 2.16, 1.79, 7.99, repro,
2001-08-17,1.21, 0.07, -6.85, 2.21, 1.81, 7.95, repro,
2001-08-18,1.60, -0.48, -6.21, 2.20, 1.87, 8.13, repro,
2001-08-19,1.33, -0.57, -4.10, 2.16, 1.81, 7.94, repro,
2001-08-20,3.03, 0.09, -2.10, 2.24, 1.83, 8.03, repro,
2001-08-21,0.65, -1.18, -1.78, 2.26, 1.89, 8.23, repro,
2001-08-22,1.34, -0.46, -4.44, 2.19, 1.81, 7.96, repro,
2001-08-23,2.47, -0.20, -8.55, 2.11, 1.74, 7.86, repro,
2001-08-24,0.36, 0.40, -1.46, 2.18, 1.81, 7.99, repro,
2001-08-25,2.24, 0.10, 1.79, 2.26, 1.85, 8.36, repro,
2001-08-26,2.13, 0.57, -4.96, 2.35, 1.97, 8.67, repro,
2001-08-27,22.82, 68.00, -67.38, 23.66, 22.64, 60.37, repro,
2001-08-28,0.63, 0.17, -1.20, 2.46, 2.00, 9.12, repro,
2001-08-29,0.91, -0.19, -5.43, 2.30, 1.90, 8.38, repro,
2001-08-30,2.83, -0.80, -7.97, 2.30, 1.90, 8.31, repro,
2001-08-31,1.84, 0.12, 8.13, 2.39, 1.93, 8.42, repro,
2001-09-01,-0.83, -0.52, 0.85, 2.10, 1.75, 7.85, repro,
2001-09-02,0.09, -0.04, 9.61, 2.20, 1.88, 8.09, repro,
2001-09-03,3.57, 0.02, 0.55, 2.20, 1.82, 8.26, repro,
2001-09-04,1.86, -0.60, 0.45, 2.21, 1.87, 8.33, repro,
2001-09-05,0.97, 0.15, 9.98, 2.33, 2.03, 8.66, repro,
2001-09-06,-0.46, -0.78, 3.97, 2.16, 1.79, 7.94, repro,
2001-09-07,1.18, 0.12, -3.60, 2.03, 1.71, 7.63, repro,
2001-09-08,1.10, -0.34, -1.16, 2.07, 1.73, 7.73, repro,
2001-09-09,1.53, 0.46, -2.92, 2.10, 1.79, 7.84, repro,
2001-09-10,0.85, 1.04, -0.09, 2.00, 1.67, 7.60, repro,
2001-09-11,1.08, -0.09, -1.10, 2.12, 1.89, 8.12, repro,
2001-09-12,0.16, -1.40, 2.98, 2.14, 1.87, 8.11, repro,
2001-09-13,0.34, 0.19, -2.75, 2.15, 1.87, 8.04, repro,
2001-09-14,0.34, 0.11, -0.25, 2.05, 1.73, 7.72, repro,
2001-09-15,1.60, 0.81, 2.06, 2.11, 1.77, 7.90, repro,
2001-09-16,0.41, -0.61, 7.18, 2.01, 1.70, 7.55, repro,
2001-09-17,0.11, -0.35, 5.25, 2.01, 1.70, 7.55, repro,
2001-09-18,0.84, 0.94, 2.42, 2.08, 1.75, 7.72, repro,
2001-09-19,-0.62, -0.26, 5.27, 2.05, 1.73, 7.76, repro,
2001-09-20,0.59, 0.42, 5.38, 2.15, 1.81, 8.09, repro,
2001-09-21,0.39, 0.14, 0.15, 2.02, 1.71, 7.66, repro,
2001-09-22,1.42, -0.28, 4.44, 2.00, 1.66, 7.53, repro,
2001-09-23,1.18, -0.76, -0.92, 2.05, 1.71, 7.70, repro,
2001-09-24,0.05, 0.17, 4.76, 2.08, 1.76, 7.96, repro,
2001-09-25,0.74, -1.83, 8.51, 2.07, 1.74, 7.84, repro,
2001-09-26,-0.03, 0.14, 4.89, 2.04, 1.72, 7.74, repro,
2001-09-27,0.74, 0.61, 8.38, 2.05, 1.76, 7.75, repro,
2001-09-28,1.40, -0.15, 1.32, 2.03, 1.69, 7.56, repro,
2001-09-29,1.16, -0.71, 0.66, 2.16, 1.83, 7.98, repro,
2001-09-30,-0.51, -0.03, 1.40, 2.17, 1.80, 8.07, repro,
2001-10-01,1.48, 0.15, 3.40, 2.07, 1.72, 7.70, repro,
2001-10-02,1.05, 1.25, 5.52, 2.02, 1.67, 7.52, repro,
2001-10-03,1.16, 0.13, 8.33, 2.17, 1.76, 8.02, repro,
2001-10-04,0.41, -0.19, 1.66, 2.36, 1.82, 8.63, repro,
2001-10-05,1.21, 0.78, 4.92, 2.18, 1.77, 8.09, repro,
2001-10-06,1.00, 0.82, 6.22, 2.25, 1.82, 8.27, repro,
2001-10-07,-0.14, 0.96, -1.06, 2.19, 1.80, 8.16, repro,
2001-10-08,0.96, 0.78, -2.54, 2.13, 1.73, 8.03, repro,
2001-10-09,0.19, -0.42, 2.94, 2.08, 1.68, 7.75, repro,
2001-10-10,1.50, 0.95, -8.81, 2.15, 1.73, 8.08, repro,
2001-10-11,0.89, -0.13, 2.78, 2.09, 1.76, 7.91, repro,
2001-10-12,-0.32, 1.16, 2.20, 2.19, 1.77, 8.24, repro,
2001-10-13,1.04, 1.43, 0.46, 2.07, 1.74, 7.76, repro,
2001-10-14,1.01, 0.94, 4.40, 2.13, 1.78, 7.94, repro,
2001-10-15,1.04, 0.50, 2.29, 2.18, 1.80, 8.03, repro,
2001-10-16,1.44, 0.29, -6.63, 2.31, 1.90, 8.50, repro,
2001-10-17,-0.25, 2.06, 4.54, 2.44, 1.96, 8.81, repro,
2001-10-18,0.67, 0.50, 7.42, 2.22, 1.80, 8.31, repro,
2001-10-19,1.26, 1.58, 1.19, 2.38, 1.91, 8.76, repro,
2001-10-20,-0.43, 0.26, 5.08, 2.25, 1.78, 8.20, repro,
2001-10-21,0.55, -0.25, 7.40, 2.39, 1.88, 8.75, repro,
2001-10-22,-0.79, -0.10, 3.12, 2.21, 1.91, 8.35, repro,
2001-10-23,1.32, 2.00, 1.87, 2.25, 1.80, 8.32, repro,
2001-10-24,-1.16, 1.61, 7.39, 2.29, 1.86, 8.58, repro,
2001-10-25,0.75, 1.28, -0.25, 2.56, 2.11, 9.19, repro,
2001-10-26,1.39, 1.06, 0.26, 2.32, 1.86, 8.56, repro,
2001-10-27,1.98, 2.15, -0.98, 2.22, 1.85, 8.23, repro,
2001-10-28,3.04, 1.44, -4.80, 2.32, 2.07, 9.11, repro,
2001-10-29,0.23, 1.79, 1.59, 2.18, 1.81, 8.22, repro,
2001-10-30,2.00, 3.13, 1.32, 2.12, 1.81, 8.03, repro,
2001-10-31,0.11, 2.36, 5.46, 2.16, 1.77, 8.15, repro,
2001-11-01,1.44, -0.09, 2.64, 2.18, 1.88, 8.30, repro,
2001-11-02,0.82, 1.07, 4.12, 2.13, 1.81, 8.01, repro,
2001-11-03,0.10, 1.32, -0.90, 2.32, 1.91, 8.52, repro,
2001-11-04,-0.60, 0.91, -1.03, 2.25, 1.84, 8.26, repro,
2001-11-05,1.78, 1.69, 9.70, 2.50, 2.13, 9.40, repro,
2001-11-06,1.92, 1.92, -4.56, 2.37, 1.98, 8.97, repro,
2001-11-07,0.41, 0.64, -6.83, 2.13, 1.76, 8.01, repro,
2001-11-08,-1.43, -0.77, 1.98, 2.26, 1.87, 8.68, repro,
2001-11-09,0.51, 2.07, -1.28, 2.48, 2.16, 9.95, repro,
2001-11-10,0.91, 2.00, 4.86, 2.31, 1.97, 8.87, repro,
2001-11-11,2.34, 3.21, 0.34, 2.07, 1.71, 7.87, repro,
2001-11-12,2.19, 1.64, 1.53, 2.15, 1.79, 8.19, repro,
2001-11-13,-0.85, 0.49, 4.35, 2.38, 1.97, 8.95, repro,
2001-11-14,-3.31, -0.07, -3.64, 2.23, 1.80, 8.27, repro,
2001-11-15,1.22, 0.98, 5.54, 2.12, 1.75, 7.88, repro,
2001-11-16,0.55, 2.66, 0.15, 2.19, 1.86, 8.26, repro,
2001-11-17,1.63, 0.65, -3.64, 2.12, 1.77, 8.02, repro,
2001-11-18,-0.13, 0.59, -11.55, 2.10, 1.81, 8.03, repro,
2001-11-19,0.56, 0.40, -7.49, 2.12, 1.81, 8.33, repro,
2001-11-20,-0.05, 3.54, 0.61, 2.28, 1.97, 8.88, repro,
2001-11-21,-0.04, 1.88, 7.92, 2.28, 2.02, 9.00, repro,
2001-11-22,2.00, 1.27, 11.00, 2.33, 2.16, 9.30, repro,
2001-11-23,-0.32, 1.08, -5.69, 2.50, 2.08, 9.73, repro,
2001-11-24,1.47, 1.10, 1.64, 2.40, 1.97, 9.45, repro,
2001-11-25,0.25, 2.21, -2.70, 2.40, 2.14, 9.56, repro,
2001-11-26,0.69, 2.07, -6.67, 2.19, 1.84, 8.51, repro,
2001-11-27,-1.02, 1.02, -8.83, 2.22, 1.91, 8.76, repro,
2001-11-28,-0.10, 0.11, -5.82, 2.09, 1.79, 8.19, repro,
2001-11-29,0.74, 1.30, 9.02, 2.16, 1.74, 8.27, repro,
2001-11-30,0.54, -0.40, -0.71, 2.10, 1.82, 8.20, repro,
2001-12-01,-0.44, 0.05, -3.80, 2.07, 1.77, 7.96, repro,
2001-12-02,2.80, 3.05, -13.15, 2.13, 1.86, 8.31, repro,
2001-12-03,0.00, 0.36, -0.93, 2.17, 1.85, 8.46, repro,
2001-12-04,0.11, 1.45, -13.06, 2.23, 1.93, 8.69, repro,
2001-12-05,0.94, -0.18, -8.82, 2.18, 1.82, 8.18, repro,
2001-12-06,0.48, 1.30, -11.89, 2.25, 1.97, 8.55, repro,
2001-12-07,-0.07, 0.24, -12.96, 2.12, 1.86, 8.20, repro,
2001-12-08,1.05, 0.49, -9.00, 2.08, 1.79, 8.06, repro,
2001-12-09,0.85, 1.08, -1.00, 2.13, 1.86, 8.31, repro,
2001-12-10,-0.62, -0.28, 5.32, 2.21, 1.94, 8.56, repro,
2001-12-11,-0.70, -0.01, -5.49, 2.14, 1.80, 8.11, repro,
2001-12-12,0.21, 0.79, -5.57, 2.27, 1.89, 8.79, repro,
2001-12-13,-1.02, 2.10, -12.45, 2.19, 1.85, 8.47, repro,
2001-12-14,0.95, 1.39, -5.53, 2.09, 1.75, 7.94, repro,
2001-12-15,2.04, -0.65, -0.52, 2.18, 1.89, 8.44, repro,
2001-12-16,-0.23, -0.01, -13.40, 2.11, 1.83, 8.18, repro,
2001-12-17,1.06, 0.63, -11.23, 2.11, 1.84, 8.18, repro,
2001-12-18,0.53, 0.90, -2.69, 2.06, 1.76, 7.80, repro,
2001-12-19,0.70, 1.22, -8.12, 2.21, 1.84, 8.53, repro,
2001-12-20,1.55, -0.46, -1.54, 2.15, 1.82, 8.07, repro,
2001-12-21,0.50, 1.06, 2.48, 2.07, 1.80, 7.95, repro,
2001-12-22,0.81, 0.76, -15.48, 2.22, 1.92, 8.64, repro,
2001-12-23,1.29, 0.53, -17.34, 2.08, 1.75, 7.73, repro,
2001-12-24,0.20, 0.45, -19.36, 2.22, 1.84, 8.35, repro,
2001-12-25,-0.24, 0.26, -15.94, 2.15, 1.79, 8.12, repro,
2001-12-26,-0.13, 0.94, -4.42, 2.03, 1.72, 7.69, repro,
2001-12-27,-0.14, 1.53, -9.67, 2.18, 1.77, 8.18, repro,
2001-12-28,-1.50, -1.47, -3.39, 2.12, 1.74, 8.11, repro,
2001-12-29,0.77, 1.68, -2.26, 2.11, 1.73, 7.98, repro,
2001-12-30,0.01, -0.15, -5.99, 2.10, 1.79, 7.96, repro,
2001-12-31,1.39, 1.53, -5.64, 2.22, 1.94, 8.55, repro,
2002-01-01,-0.15, 1.47, -12.82, 2.10, 1.78, 7.91, repro,
2002-01-02,2.36, 1.30, -9.85, 2.16, 1.80, 8.05, repro,
2002-01-03,2.70, 1.71, -7.22, 2.17, 1.87, 8.26, repro,
2002-01-04,1.61, -0.54, -0.78, 2.20, 1.87, 8.31, repro,
2002-01-05,1.14, -0.28, -0.05, 2.22, 1.95, 8.52, repro,
2002-01-06,0.79, -0.15, -1.60, 2.09, 1.77, 7.87, repro,
2002-01-07,1.00, 1.25, -10.48, 2.21, 1.96, 8.73, repro,
2002-01-08,0.96, -0.55, -7.93, 2.26, 1.95, 8.82, repro,
2002-01-09,0.71, -0.61, -1.65, 2.10, 1.83, 8.00, repro,
2002-01-10,1.22, 0.24, -8.26, 2.17, 1.89, 8.38, repro,
2002-01-11,-0.10, 0.66, -1.24, 2.17, 1.77, 8.27, repro,
2002-01-12,1.35, -1.04, -10.83, 2.15, 1.86, 8.21, repro,
2002-01-13,1.00, 0.87, -1.81, 2.43, 1.99, 9.49, repro,
2002-01-14,1.49, -0.81, -1.69, 2.22, 1.89, 8.49, repro,
2002-01-15,0.03, -1.18, -7.84, 2.11, 1.86, 8.12, repro,
2002-01-16,0.13, -1.00, -3.99, 2.27, 2.01, 9.11, repro,
2002-01-17,0.62, 0.23, -5.56, 2.15, 1.98, 8.34, repro,
2002-01-18,-0.01, -0.72, -10.77, 2.07, 1.84, 7.89, repro,
2002-01-19,0.99, -0.23, -4.37, 2.08, 1.84, 7.85, repro,
2002-01-20,1.16, -1.41, -5.45, 2.12, 1.87, 7.93, repro,
2002-01-21,0.52, -1.36, -7.79, 2.04, 1.77, 7.66, repro,
2002-01-22,-0.53, 0.49, 0.28, 2.22, 1.96, 8.41, repro,
2002-01-23,-0.84, -1.08, -5.43, 2.20, 1.86, 8.29, repro,
2002-01-24,1.35, 0.16, -6.59, 2.07, 1.85, 7.87, repro,
2002-01-25,0.95, -0.63, -7.56, 2.03, 1.77, 7.66, repro,
2002-01-26,0.83, -0.83, -5.24, 2.01, 1.74, 7.65, repro,
2002-01-27,0.42, -0.46, -10.83, 2.05, 1.72, 7.76, repro,
2002-01-28,0.13, -0.59, -8.23, 2.00, 1.77, 7.64, repro,
2002-01-29,-0.15, -0.50, -15.44, 2.00, 1.79, 7.67, repro,
2002-01-30,-0.07, -1.58, -15.94, 2.21, 1.91, 8.22, repro,
2002-01-31,1.03, -0.89, -12.48, 2.22, 1.86, 8.41, repro,
2002-02-01,0.88, -0.32, -12.48, 2.20, 1.94, 8.10, repro,
2002-02-02,0.66, -1.23, -7.41, 2.13, 1.89, 8.05, repro,
2002-02-03,1.68, -1.01, -12.62, 2.15, 1.81, 8.36, repro,
2002-02-04,0.98, -1.14, -8.66, 2.24, 1.87, 8.50, repro,
2002-02-05,1.23, -1.21, -1.77, 2.18, 1.97, 8.41, repro,
2002-02-06,1.31, 0.39, -0.64, 2.17, 1.97, 8.26, repro,
2002-02-07,0.83, 1.52, -4.78, 2.17, 1.87, 8.06, repro,
2002-02-08,1.83, 0.15, -9.48, 2.18, 2.01, 8.45, repro,
2002-02-09,-0.73, -1.64, -9.95, 2.06, 1.77, 7.93, repro,
2002-02-10,0.95, -0.53, -15.38, 2.22, 1.96, 8.62, repro,
2002-02-11,0.93, -0.10, -11.37, 2.09, 1.83, 8.21, repro,
2002-02-12,0.70, 0.65, -5.44, 2.21, 1.96, 8.62, repro,
2002-02-13,1.05, -0.39, -4.48, 2.10, 1.84, 8.17, repro,
2002-02-14,0.32, -0.23, -7.13, 2.28, 2.03, 8.76, repro,
2002-02-15,0.17, 0.35, 1.71, 2.26, 2.05, 8.81, repro,
2002-02-16,0.65, 0.57, -3.93, 2.28, 1.98, 8.84, repro,
2002-02-17,2.03, 0.38, -1.38, 2.06, 1.94, 8.17, repro,
2002-02-18,0.08, -0.85, -2.23, 2.40, 2.18, 9.44, repro,
2002-02-19,1.22, -1.60, -2.86, 2.55, 2.28, 10.13, repro,
2002-02-20,0.46, 0.14, -0.64, 2.29, 1.99, 8.78, repro,
2002-02-21,-3.23, -1.81, -2.45, 2.47, 2.07, 9.28, repro,
2002-02-22,1.52, -0.94, -7.11, 2.18, 1.92, 8.45, repro,
2002-02-23,2.51, 1.09, -4.22, 2.11, 1.84, 8.18, repro,
2002-02-24,0.25, -0.93, -7.41, 2.28, 2.05, 9.03, repro,
2002-02-25,1.10, 0.15, 2.80, 2.15, 1.89, 8.28, repro,
2002-02-26,0.88, -0.36, -11.22, 2.24, 2.03, 8.75, repro,
2002-02-27,1.25, 1.19, -5.13, 2.36, 2.12, 9.26, repro,
2002-02-28,1.26, -0.18, 1.25, 2.31, 2.08, 9.06, repro,
2002-03-01,0.49, 0.13, -1.40, 2.13, 1.92, 8.36, repro,
2002-03-02,0.70, -0.54, 0.27, 2.07, 1.92, 8.16, repro,
2002-03-03,0.33, -0.16, -5.96, 2.12, 1.98, 8.31, repro,
2002-03-04,0.23, 0.55, -5.48, 2.00, 1.71, 7.70, repro,
2002-03-05,0.64, 0.13, -4.18, 2.01, 1.77, 7.84, repro,
2002-03-06,1.74, 1.42, -7.66, 2.03, 1.83, 7.95, repro,
2002-03-07,1.49, 0.85, -3.38, 2.02, 1.76, 7.83, repro,
2002-03-08,-0.20, -1.12, -4.82, 2.02, 1.75, 7.80, repro,
2002-03-09,0.80, -0.82, -9.88, 2.08, 1.82, 8.00, repro,
2002-03-10,1.79, 0.91, -8.52, 1.99, 1.70, 7.72, repro,
2002-03-11,1.12, -0.81, -7.75, 2.02, 1.82, 7.91, repro,
2002-03-12,0.68, -0.63, -0.07, 2.01, 1.76, 7.87, repro,
2002-03-13,0.82, -0.77, -7.21, 2.06, 1.83, 8.06, repro,
2002-03-14,-0.38, -2.21, -5.86, 2.01, 1.70, 7.73, repro,
2002-03-15,0.13, -1.24, -4.13, 2.01, 1.75, 7.76, repro,
2002-03-16,0.03, -1.09, -7.65, 1.98, 1.70, 7.62, repro,
2002-03-17,1.53, -0.26, -4.52, 2.05, 1.81, 7.95, repro,
2002-03-18,-0.29, -2.17, -5.90, 2.08, 1.88, 8.11, repro,
2002-03-19,0.67, -0.76, -9.03, 2.04, 1.77, 7.88, repro,
2002-03-20,0.95, -0.94, -12.77, 2.12, 1.86, 8.21, repro,
2002-03-21,0.94, -1.04, -11.96, 2.01, 1.73, 7.73, repro,
2002-03-22,2.66, 0.98, -4.22, 2.03, 1.75, 7.87, repro,
2002-03-23,4.49, 1.92, -3.87, 2.08, 1.78, 8.01, repro,
2002-03-25,1.05, -1.33, -9.38, 2.08, 1.76, 7.96, repro,
2002-03-26,1.69, -1.65, -13.85, 2.06, 1.72, 7.82, repro,
2002-03-27,1.08, -1.17, -0.86, 2.07, 1.81, 8.01, repro,
2002-03-28,1.39, -1.02, 0.54, 2.15, 1.86, 8.26, repro,
2002-03-29,1.14, -0.79, -7.45, 2.08, 1.81, 8.14, repro,
2002-03-30,-0.09, -0.59, -16.03, 2.08, 1.73, 8.00, repro,
2002-03-31,0.87, -1.34, -8.02, 2.13, 1.80, 8.20, repro,
2002-04-01,1.64, -1.27, -1.07, 2.14, 1.86, 8.29, repro,
2002-04-02,0.47, -0.05, -7.18, 2.04, 1.71, 7.84, repro,
2002-04-03,0.60, -1.06, -10.25, 2.27, 1.95, 8.75, repro,
2002-04-04,0.77, -0.56, -13.71, 2.07, 1.76, 7.99, repro,
2002-04-05,0.68, -1.74, -15.82, 2.21, 1.84, 8.40, repro,
2002-04-06,1.02, -0.79, -9.97, 2.18, 1.82, 8.22, repro,
2002-04-07,1.87, -0.65, -4.88, 2.11, 1.79, 8.15, repro,
2002-04-08,0.98, -1.04, -7.43, 2.17, 1.91, 8.33, repro,
2002-04-09,1.99, 0.11, -9.87, 2.17, 1.91, 8.26, repro,
2002-04-10,0.46, -0.94, -9.17, 2.17, 1.86, 8.39, repro,
2002-04-11,0.94, 0.05, -9.73, 2.14, 1.84, 8.25, repro,
2002-04-12,2.73, -0.10, -12.67, 2.43, 1.98, 9.36, repro,
2002-04-13,2.15, -0.93, -3.47, 2.17, 1.90, 8.28, repro,
2002-04-14,0.69, -1.24, 4.01, 2.08, 1.76, 7.95, repro,
2002-04-15,0.76, -1.43, 6.72, 2.12, 1.85, 8.33, repro,
2002-04-16,0.88, -0.80, -0.39, 2.13, 1.83, 8.25, repro,
2002-04-17,0.65, -1.64, 1.28, 2.29, 2.04, 8.94, repro,
2002-04-18,2.38, -0.59, -3.70, 2.12, 1.79, 8.17, repro,
2002-04-19,1.43, -0.64, -7.75, 2.12, 1.82, 8.26, repro,
2002-04-20,-0.44, -0.70, -0.91, 2.11, 1.85, 8.29, repro,
2002-04-21,1.34, -2.27, -4.32, 2.09, 1.81, 8.23, repro,
2002-04-22,2.09, -0.08, 1.50, 2.67, 2.31, 10.16, repro,
2002-04-23,1.99, -1.05, 0.61, 2.05, 1.72, 8.03, repro,
2002-04-24,1.78, -0.26, -1.82, 2.04, 1.69, 7.81, repro,
2002-04-25,2.56, -0.81, -11.47, 2.09, 1.79, 8.20, repro,
2002-04-26,1.72, -1.82, 1.67, 2.21, 1.88, 8.60, repro,
2002-04-27,1.38, -1.10, -6.52, 2.04, 1.68, 7.75, repro,
2002-04-28,1.79, -0.41, -6.34, 2.04, 1.69, 7.80, repro,
2002-04-29,1.09, -1.28, -7.13, 2.06, 1.73, 7.92, repro,
2002-04-30,1.82, -1.19, -7.16, 2.21, 1.82, 8.42, repro,
2002-05-02,2.47, -1.26, -5.57, 2.03, 1.67, 7.76, repro,
2002-05-03,1.31, -1.36, 1.04, 2.11, 1.76, 8.00, repro,
2002-05-04,1.39, -1.30, -2.98, 2.05, 1.69, 7.84, repro,
2002-05-05,0.54, -2.06, -6.97, 2.05, 1.66, 7.68, repro,
2002-05-06,-0.11, -1.69, -3.43, 2.17, 1.84, 8.22, repro,
2002-05-07,0.71, -1.44, -2.40, 2.16, 1.79, 8.17, repro,
2002-05-08,1.71, -2.11, 1.77, 2.15, 1.78, 8.11, repro,
2002-05-09,1.90, -1.34, -5.38, 2.04, 1.66, 7.77, repro,
2002-05-10,0.66, -1.71, 0.79, 2.08, 1.71, 7.95, repro,
2002-05-11,0.15, -1.49, -3.94, 2.06, 1.70, 7.80, repro,
2002-05-12,1.07, -1.11, -5.59, 2.14, 1.82, 8.15, repro,
2002-05-13,0.06, -2.53, -11.74, 2.11, 1.74, 8.18, repro,
2002-05-14,1.36, -1.12, -0.12, 2.03, 1.66, 7.67, repro,
2002-05-15,1.66, -0.90, 0.34, 2.13, 1.71, 7.98, repro,
2002-05-16,0.34, -1.76, 5.08, 2.06, 1.67, 7.86, repro,
2002-05-17,1.21, -1.82, -0.44, 2.15, 1.70, 8.23, repro,
2002-05-18,-0.02, -1.52, -4.21, 2.12, 1.73, 8.17, repro,
2002-05-19,2.45, 0.56, -0.02, 2.09, 1.70, 8.04, repro,
2002-05-20,4.25, 1.78, 4.59, 2.06, 1.68, 7.82, repro,
2002-05-21,0.66, -1.94, 3.69, 2.06, 1.66, 7.72, repro,
2002-05-22,0.84, -1.69, 1.18, 2.11, 1.69, 8.08, repro,
2002-05-23,1.51, -2.28, 2.89, 2.10, 1.72, 7.96, repro,
2002-05-24,0.22, -2.06, -1.26, 2.07, 1.71, 7.83, repro,
2002-05-25,1.33, -0.59, 0.64, 2.05, 1.72, 7.80, repro,
2002-05-26,-1.10, -2.24, 5.55, 2.08, 1.71, 7.94, repro,
2002-05-27,-0.10, -1.70, 6.44, 2.05, 1.66, 7.68, repro,
2002-05-28,0.49, -2.41, 3.53, 2.16, 1.72, 8.32, repro,
2002-05-29,0.37, -1.17, 9.75, 2.11, 1.66, 7.95, repro,
2002-05-30,0.87, -0.54, 12.60, 2.13, 1.78, 8.29, repro,
2002-05-31,0.53, -1.81, 11.04, 2.13, 1.75, 8.00, repro,
2002-06-01,1.19, -1.41, 22.65, 2.22, 1.80, 8.40, repro,
2002-06-02,0.12, -2.97, 17.74, 2.14, 1.72, 8.27, repro,
2002-06-03,1.66, -1.71, 7.14, 2.10, 1.66, 7.93, repro,
2002-06-04,-1.57, -2.60, 3.26, 2.07, 1.71, 7.74, repro,
2002-06-05,-0.49, -1.70, -1.99, 2.09, 1.72, 7.88, repro,
2002-06-06,0.62, -3.06, 16.25, 2.10, 1.69, 7.83, repro,
2002-06-07,0.76, -2.62, 5.92, 2.13, 1.81, 8.18, repro,
2002-06-08,0.42, -2.39, 8.60, 2.07, 1.69, 7.82, repro,
2002-06-09,1.20, -2.47, 7.75, 2.09, 1.77, 7.99, repro,
2002-06-10,0.62, -1.80, 7.09, 2.06, 1.73, 7.83, repro,
2002-06-11,0.02, -1.61, 12.53, 2.06, 1.73, 7.81, repro,
2002-06-12,0.53, -1.70, 8.92, 2.08, 1.79, 7.99, repro,
2002-06-13,0.47, -1.48, 3.87, 2.10, 1.82, 8.04, repro,
2002-06-14,0.39, -1.08, 10.19, 2.13, 1.91, 8.23, repro,
2002-06-15,1.47, -1.13, 7.81, 2.05, 1.73, 7.79, repro,
2002-06-16,0.90, -0.59, 7.01, 2.08, 1.75, 7.88, repro,
2002-06-17,0.33, -1.09, 16.83, 2.06, 1.73, 7.82, repro,
2002-06-18,1.22, -0.65, 6.34, 2.04, 1.72, 7.75, repro,
2002-06-19,-1.66, -1.65, 6.43, 2.05, 1.76, 7.83, repro,
2002-06-20,-0.00, -0.71, 0.70, 2.06, 1.73, 7.84, repro,
2002-06-21,0.15, -1.44, 4.31, 2.17, 1.83, 8.33, repro,
2002-06-22,0.10, -0.75, 5.45, 2.06, 1.72, 7.85, repro,
2002-06-23,3.36, -0.46, 15.75, 3.66, 3.19, 15.03, repro,
2002-06-24,1.41, -1.85, 12.09, 2.04, 1.69, 7.74, repro,
2002-06-25,0.08, -0.81, 3.97, 2.04, 1.69, 7.76, repro,
2002-06-26,1.49, -1.37, 6.74, 2.15, 1.89, 8.47, repro,
2002-06-27,1.60, -0.88, 0.53, 2.17, 1.91, 8.52, repro,
2002-06-28,0.53, -0.33, 11.92, 2.15, 1.84, 8.37, repro,
2002-06-29,1.18, -0.54, 9.78, 2.09, 1.76, 7.94, repro,
2002-06-30,-1.54, -3.40, 3.86, 2.44, 2.24, 9.59, repro,
2002-07-01,0.85, -0.51, 10.72, 2.11, 1.78, 8.07, repro,
2002-07-02,-0.43, -1.87, 7.75, 2.06, 1.73, 7.83, repro,
2002-07-03,-0.36, -1.47, 13.14, 2.10, 1.78, 7.99, repro,
2002-07-04,1.36, -0.80, 7.70, 2.08, 1.78, 7.95, repro,
2002-07-05,0.75, -2.46, 9.98, 2.04, 1.71, 7.73, repro,
2002-07-06,-0.21, -2.43, 5.10, 2.02, 1.65, 7.64, repro,
2002-07-07,0.40, -1.30, 6.01, 2.06, 1.67, 7.74, repro,
2002-07-08,0.59, -1.02, 2.40, 2.05, 1.67, 7.72, repro,
2002-07-09,0.45, 0.60, 0.97, 2.13, 1.84, 8.17, repro,
2002-07-10,1.94, 0.64, 8.73, 2.08, 1.69, 7.84, repro,
2002-07-11,1.65, -0.30, 0.80, 2.03, 1.66, 7.70, repro,
2002-07-12,0.72, 0.95, -0.64, 2.12, 1.73, 8.08, repro,
2002-07-13,1.28, -0.69, 4.22, 2.04, 1.67, 7.74, repro,
2002-07-14,0.07, 0.25, 8.56, 2.06, 1.67, 7.78, repro,
2002-07-15,1.61, -1.08, 4.71, 2.10, 1.76, 8.08, repro,
2002-07-16,2.63, 0.21, 2.04, 2.04, 1.66, 7.72, repro,
2002-07-17,-0.50, -1.96, 1.76, 2.06, 1.71, 7.86, repro,
2002-07-18,0.68, -1.00, -1.64, 2.16, 1.74, 8.04, repro,
2002-07-19,-0.01, -1.04, 10.40, 2.10, 1.75, 7.96, repro,
2002-07-20,2.04, 0.87, 0.40, 2.18, 1.74, 8.07, repro,
2002-07-21,-0.18, -0.25, 6.62, 2.06, 1.71, 7.80, repro,
2002-07-22,0.72, 0.48, -4.68, 2.05, 1.66, 7.70, repro,
2002-07-23,1.89, 0.46, -8.96, 2.07, 1.71, 7.87, repro,
2002-07-24,0.04, 0.45, -0.83, 2.07, 1.74, 7.87, repro,
2002-07-25,0.84, -0.46, 5.22, 2.11, 1.70, 7.88, repro,
2002-07-26,4.06, 1.12, 0.60, 2.10, 1.74, 7.95, repro,
2002-07-27,1.60, 1.33, 1.03, 2.17, 1.72, 7.94, repro,
2002-07-28,0.23, -0.02, -2.10, 2.19, 1.78, 8.09, repro,
2002-07-29,1.63, 0.69, -1.34, 2.24, 1.85, 8.37, repro,
2002-07-30,0.18, 1.40, -2.19, 2.18, 1.78, 8.11, repro,
2002-07-31,0.19, 0.49, -4.20, 2.26, 1.80, 8.33, repro,
2002-08-01,0.59, -0.94, -12.82, 2.12, 1.68, 7.87, repro,
2002-08-02,0.30, -0.46, -0.81, 2.14, 1.75, 7.94, repro,
2002-08-03,0.99, -0.32, -11.55, 2.10, 1.68, 7.86, repro,
2002-08-04,-0.31, 0.88, 3.18, 2.19, 1.78, 8.10, repro,
2002-08-05,0.56, 1.12, 1.05, 2.13, 1.73, 7.97, repro,
2002-08-06,1.35, 0.03, 0.19, 2.14, 1.74, 7.99, repro,
2002-08-07,1.40, 0.94, -6.74, 2.22, 1.78, 8.12, repro,
2002-08-08,0.53, 0.31, -5.19, 2.15, 1.73, 7.98, repro,
2002-08-09,1.26, 1.11, -3.79, 2.19, 1.77, 8.02, repro,
2002-08-10,1.24, 0.13, 0.07, 2.17, 1.81, 8.07, repro,
2002-08-11,0.85, 0.12, 2.71, 2.21, 1.79, 8.18, repro,
2002-08-12,2.23, 1.02, 0.57, 2.23, 1.87, 8.23, repro,
2002-08-13,-0.65, -0.94, -2.19, 2.25, 1.88, 8.33, repro,
2002-08-14,1.72, -0.32, 0.05, 2.17, 1.81, 8.11, repro,
2002-08-15,1.90, 2.77, -6.66, 2.16, 1.83, 8.06, repro,
2002-08-16,1.39, 0.57, 5.37, 2.09, 1.74, 7.89, repro,
2002-08-17,1.45, 0.02, 5.21, 2.10, 1.80, 8.00, repro,
2002-08-18,0.64, 0.75, 1.43, 2.18, 1.87, 8.28, repro,
2002-08-19,0.82, 0.09, 1.39, 2.07, 1.74, 7.96, repro,
2002-08-20,1.16, 1.45, 0.51, 2.04, 1.72, 7.83, repro,
2002-08-21,0.92, 0.86, 0.81, 2.04, 1.71, 7.82, repro,
2002-08-22,1.18, 1.25, 0.87, 2.02, 1.67, 7.71, repro,
2002-08-23,1.30, 1.42, 0.53, 2.12, 1.80, 8.09, repro,
2002-08-24,2.35, 1.58, 0.57, 2.06, 1.73, 7.93, repro,
2002-08-25,1.47, 1.20, -0.90, 2.05, 1.71, 7.82, repro,
2002-08-26,0.97, 0.91, 1.84, 2.03, 1.72, 7.79, repro,
2002-08-27,2.87, 1.05, -1.47, 2.04, 1.71, 7.76, repro,
2002-08-28,0.04, 1.31, -0.86, 2.03, 1.72, 7.76, repro,
2002-08-29,0.43, 1.17, 0.73, 2.04, 1.67, 7.74, repro,
2002-08-30,-0.53, 0.35, 5.60, 2.09, 1.68, 7.88, repro,
2002-08-31,0.75, 0.44, -2.31, 2.16, 1.78, 8.12, repro,
2002-09-01,1.00, -0.78, -7.27, 2.02, 1.66, 7.74, repro,
2002-09-02,0.56, 1.20, -3.40, 2.02, 1.65, 7.67, repro,
2002-09-03,0.80, 0.69, 1.25, 2.08, 1.70, 8.05, repro,
2002-09-04,0.68, 0.90, 6.38, 2.17, 1.76, 8.31, repro,
2002-09-05,0.77, 0.09, 12.26, 2.02, 1.67, 7.74, repro,
2002-09-06,0.46, -0.43, 1.32, 2.17, 1.75, 8.18, repro,
2002-09-07,0.89, 0.17, 2.77, 2.06, 1.73, 7.87, repro,
2002-09-08,1.18, 0.78, 3.47, 2.04, 1.73, 7.82, repro,
2002-09-09,-0.45, 0.63, 8.90, 2.09, 1.80, 7.94, repro,
2002-09-10,-0.28, 0.98, 4.86, 2.04, 1.68, 7.79, repro,
2002-09-11,0.88, 1.76, 3.32, 2.04, 1.68, 7.83, repro,
2002-09-12,1.05, 0.71, 6.87, 2.03, 1.66, 7.69, repro,
2002-09-13,1.39, 0.08, 1.88, 2.07, 1.74, 7.92, repro,
2002-09-14,0.59, 0.11, 4.75, 2.02, 1.67, 7.71, repro,
2002-09-15,1.60, 0.81, 3.96, 2.09, 1.79, 7.99, repro,
2002-09-16,-0.02, 1.38, 8.18, 2.05, 1.73, 7.88, repro,
2002-09-17,0.49, 1.15, 11.96, 2.05, 1.68, 7.76, repro,
2002-09-18,0.17, 1.35, 12.57, 2.05, 1.72, 7.77, repro,
2002-09-19,0.47, 0.80, 6.29, 2.02, 1.67, 7.62, repro,
2002-09-20,0.64, 1.03, 7.15, 2.05, 1.72, 7.84, repro,
2002-09-21,-0.20, 2.60, 6.53, 2.12, 1.84, 8.07, repro,
2002-09-22,0.38, 1.71, 5.70, 2.10, 1.69, 7.97, repro,
2002-09-23,1.08, 0.52, 7.70, 2.10, 1.73, 7.89, repro,
2002-09-24,0.84, 1.19, 14.14, 2.16, 1.81, 8.18, repro,
2002-09-25,-0.33, 0.53, 9.64, 2.21, 1.86, 8.45, repro,
2002-09-26,1.47, 1.07, 11.86, 2.19, 1.78, 8.27, repro,
2002-09-27,0.93, 1.91, 7.66, 2.16, 1.85, 8.28, repro,
2002-09-28,3.06, 2.22, 6.20, 2.13, 1.77, 8.11, repro,
2002-09-29,2.43, 1.32, 8.76, 2.14, 1.85, 8.25, repro,
2002-09-30,2.41, 1.35, 5.58, 2.22, 1.84, 8.49, repro,
2002-10-01,1.35, 2.80, -2.99, 2.11, 1.75, 8.07, repro,
2002-10-02,1.67, 1.84, 2.33, 2.21, 1.77, 8.26, repro,
2002-10-03,1.66, 2.52, 8.30, 2.22, 1.87, 8.34, repro,
2002-10-04,1.74, 1.60, 11.01, 2.19, 1.84, 8.28, repro,